Regional Weather Roundup
Issued by NWS

Home | Current Version | Previous Version | Graphics & Text | Print | Product List | Glossary On
Versions: 1 2 3 4 5 6 7 8 9 10 11 12 13 14 15 16 17 18 19 20 21 22 23 24 25 26 27 28 29 30 31 32 33 34 35 36 37 38 39 40 41 42 43 44 45 46 47 48 49 50
000
ASUS43 KIND 010609
RWRIN

WEATHER ROUNDUP FOR INDIANA
NATIONAL WEATHER SERVICE INDIANAPOLIS IN
100 AM EST SUN MAR 01 2015

NOTE: "FAIR" INDICATES FEW OR NO CLOUDS BELOW 12,000 FEET WITH NO
SIGNIFICANT WEATHER AND/OR OBSTRUCTIONS TO VISIBILITY.

* - STATION DOES NOT REPORT WEATHER SUCH AS PRECIPITATION OR FOG.

+ - STATION NOT QUALITY CONTROLLED BY THE NATIONAL WEATHER SERVICE.
    USE DATA WITH CAUTION...ESPECIALLY DEWPOINT AND RELATIVE
    HUMIDITY OBSERVATIONS.

INZ001>003-010>013-019-020-010700-
NORTHWEST INDIANA

CITY           SKY/WX    TMP DP  RH WIND       PRES   REMARKS
GARY /AIRPORT/ CLOUDY    20  13  74 CALM      30.47F
KNOX *+          N/A     19   9  63 SE5       30.45F WCI  13
LA PORTE +     LGT SNOW  19  16  89 CALM      30.46F
6HR MIN TEMP:  19; 6HR MAX TEMP:  21;

MICHIGAN CITY+ FLURRIES  19  10  68 CALM      30.47F
MONTICELLO +   LGT SNOW  19  17  93 E3        30.45S
6HR MIN TEMP:  19; 6HR MAX TEMP:  22; 6HR PCP:  0.03;

RENSSELAER +   LGT SNOW  21  21 100 E5        30.45F WCI  15
VALPARAISO     LGT SNOW  17  14  88 CALM      30.45F FOG
6HR MIN TEMP:  17; 6HR MAX TEMP:  20; 6HR PCP: TRACE;


$$

LMZ046-743>745-010700-
SOUTHERN LAKE MICHIGAN

STATION/POSITION TIME  TEMP WIND        PRES
                       AIR  DIR/SP/G
                 (UTC) (F)  (DEG/KT/KT) (MB)
MICHIGAN CITY    0600   17  120/  6/  8   N/A

$$

INZ004-005-014>016-021>024-010700-
NORTH CENTRAL INDIANA

CITY           SKY/WX    TMP DP  RH WIND       PRES   REMARKS
GOSHEN         LGT SNOW  16  11  80 SE5       30.46F WCI   9
6HR MIN TEMP:  16; 6HR MAX TEMP:  19; 6HR PCP:  0.03;

LOGANSPORT +   LGT SNOW  19  18  93 E6        30.45F WCI  11
PERU/GRISSOM   LGT SNOW  18  16  93 E6        30.43F FOG     WCI   9
6HR MIN TEMP:  18; 6HR MAX TEMP:  21; 6HR PCP:  0.08;

ROCHESTER +    LGT SNOW  21  18  86 SE3       30.46F
SOUTH BEND     LGT SNOW  17  13  84 SE6       30.46F FOG     WCI   9
6HR MIN TEMP:  17; 6HR MAX TEMP:  20; 6HR PCP:  0.04;

WARSAW +       LGT SNOW  18  14  86 SE3       30.45F

$$

INZ006>009-017-018-025>027-010700-
NORTHEAST INDIANA

CITY           SKY/WX    TMP DP  RH WIND       PRES   REMARKS
ANGOLA *+      CLOUDY    12  10  92 SE3       30.44F
AUBURN +       LGT SNOW  18  12  79 E3        30.46
FORT WAYNE     LGT SNOW  17  14  88 E6        30.46F FOG     WCI   9
6HR MIN TEMP:  16; 6HR MAX TEMP:  18; 6HR PCP:  0.10;

HUNTINGTON +   LGT SNOW  17  13  81 CALM      30.44F
6HR MIN TEMP:  17; 6HR MAX TEMP:  19; 6HR PCP:  0.04;


$$

INZ028-029-035-036-043>045-051>053-010700-
WEST CENTRAL INDIANA

CITY           SKY/WX    TMP DP  RH WIND       PRES   REMARKS
CRAWFORDSVL +  LGT SNOW  19  15  84 CALM      30.43S VSB 3/4
6HR MIN TEMP:  19; 6HR MAX TEMP:  20; 6HR PCP:  0.04;

GREENCASTLE +  LGT SNOW  23  19  86 SE6       30.43F VSB 1   WCI  16
LAFAYETTE      LGT SNOW  20  19  96 E5        30.45F VSB 3/4 WCI  13
6HR MIN TEMP:  20; 6HR MAX TEMP:  20; 6HR PCP:  0.07;

TERRE HAUTE    LGT SNOW  24  22  91 SE7       30.43F VSB 3/4 WCI  16
6HR MIN TEMP:  24; 6HR MAX TEMP:  24; 6HR PCP:  0.32;


$$

INZ030>032-037>040-046>048-054>057-064-065-010700-
CENTRAL INDIANA

CITY           SKY/WX    TMP DP  RH WIND       PRES   REMARKS
CP ATTERBURY + LGT SNOW  25  23  93 SE3       30.44F
FRANKFORT +    LGT SNOW  21  21 100 E5        30.44F VSB 1   WCI  14
6HR MIN TEMP:  20; 6HR MAX TEMP:  23; 6HR PCP:  0.03;

GREENWOOD *+   CLOUDY    23  18  80 SE8       30.43  VSB 1   WCI  14
INDIANAPOLIS   SNOW      22  20  92 SE7       30.42F VSB 1/2 WCI  13
6HR MIN TEMP:  21; 6HR MAX TEMP:  23; 6HR PCP:  0.30;

-EAGLE CREEK   LGT SNOW  21  20  96 SE6       30.42F VSB 3/4 WCI  13
6HR MIN TEMP:  20; 6HR MAX TEMP:  21; 6HR PCP:  0.19;

KOKOMO *+      CLOUDY    18  16  93 E6        30.44F VSB 1   WCI   9
6HR MIN TEMP:  18; 6HR MAX TEMP:  21; 6HR PCP:  0.01;

MARION +       LGT SNOW  19  16  89 E5        30.44F WCI  12
MT COMFORT *+  CLOUDY    23 N/A N/A S7        30.43F WCI  15
SHELBYVILLE    LGT SNOW  24  20  84 SE3       30.43F VSB 3/4
6HR MIN TEMP:  23; 6HR MAX TEMP:  26; 6HR PCP:  0.18;

ZIONSVILLE +   LGT SNOW  22  18  86 SE3       30.43S VSB 1
6HR MIN TEMP:  20; 6HR MAX TEMP:  23; 6HR PCP:  0.10;


$$

INZ033-034-041-042-049-050-058-059-010700-
EAST CENTRAL INDIANA

CITY           SKY/WX    TMP DP  RH WIND       PRES   REMARKS
MUNCIE         LGT SNOW  21  18  88 SE3       30.43F VSB 3/4
6HR MIN TEMP:  18; 6HR MAX TEMP:  21; 6HR PCP:  0.18;


$$

INZ060-061-067>069-081>083-085>088-010700-
SOUTHWEST INDIANA

CITY           SKY/WX    TMP DP  RH WIND       PRES   REMARKS
EVANSVILLE     CLOUDY    32  20  61 NE9       30.45F WCI  24
6HR MIN TEMP:  32; 6HR MAX TEMP:  34; 6HR PCP: TRACE;

HUNTINGBURG *+ CLOUDY    30  19  64 NE8       30.45F WCI  23
6HR MIN TEMP:  30; 6HR MAX TEMP:  34;

WASHINGTON +   LGT SNOW  28  25  89 S9        30.44F WCI  19
6HR MIN TEMP:  27; 6HR MAX TEMP:  30; 6HR PCP:  0.01;


$$

INZ062-063-066-070>080-084-089>092-010700-
SOUTH CENTRAL AND SOUTHEAST INDIANA

CITY           SKY/WX    TMP DP  RH WIND       PRES   REMARKS
BLOOMINGTON    SNOW      24  23  96 SE6       30.42F VSB 1/2 WCI  17
6HR MIN TEMP:  23; 6HR MAX TEMP:  28; 6HR PCP:  0.15;

NORTH VERNON + LGT SNOW  25  25 100 E5        30.45F WCI  19
SEYMOUR +      LGT SNOW  27  23  86 SE7       30.46F WCI  19

$$



USA.gov is the U.S. government's official web portal to all federal, state and local government web resources and services.